Regional Weather Roundup
Issued by NWS

Home | Current Version | Previous Version | Graphics & Text | Print | Product List | Glossary On
Versions: 1 2 3 4 5 6 7 8 9 10 11 12 13 14 15 16 17 18 19 20 21 22 23 24 25 26 27 28 29 30 31 32 33 34 35 36 37 38 39 40 41 42 43 44 45 46 47 48 49 50
000
ASUS45 KBOI 270510
RWRID

IDAHO REGIONAL WEATHER ROUNDUP
NATIONAL WEATHER SERVICE BOISE ID
1100 PM MDT WED APR 26 2017

NOTE: "FAIR" INDICATES FEW OR NO CLOUDS BELOW 12000 FEET
WITH NO SIGNIFICANT WEATHER AND/OR OBSTRUCTIONS TO VISIBILITY

IDZ012-014-270600-
SOUTHWEST IDAHO


CITY           SKY/WX    TMP DP  RH WIND       PRES   REMARKS
BOISE          PTCLDY    45  39  79 NW13      29.81R
CALDWELL       CLEAR     44  38  79 W14       29.83R
MOUNTAIN HOME  CLEAR     44  44 100 W15       29.79R
$$

IDZ016-017-270600-
SOUTHCENTRAL IDAHO


CITY           SKY/WX    TMP DP  RH WIND       PRES   REMARKS
BURLEY         LGT RAIN  41  37  86 SW15      29.72R
JEROME         LGT RAIN  42  42 100 SW22G28   29.74R
TWIN FALLS     MOCLDY    41  40  96 W23G29    29.76S
$$

IDZ019>023-270600-
SOUTHEAST IDAHO


CITY           SKY/WX    TMP DP  RH WIND       PRES   REMARKS
IDAHO FALLS    CLOUDY    42  40  92 S13       29.65F
POCATELLO      CLOUDY    44  41  89 SW20G25   29.69S
REXBURG        CLOUDY    41  38  89 S14G22    29.64F
$$

IDZ006-010-011-018-031-032-270600-
CENTRAL IDAHO MOUNTAINS


CITY           SKY/WX    TMP DP  RH WIND       PRES   REMARKS
MCCALL         MOCLDY    35  31  85 W6        29.75S WCI  30
HAILEY         PTCLDY    39  32  75 CALM      29.66F
STANLEY          N/A     33  31  92 NW8       29.71R WCI  26
SALMON         CLOUDY    39  34  81 CALM      29.69S
CHALLIS        LGT SNOW  35  34  96 N10       29.69R FOG     WCI  27
$$

IDZ002-004-006-007-026-270600-
NORTHERN IDAHO


CITY           SKY/WX    TMP DP  RH WIND       PRES   REMARKS
LEWISTON       CLOUDY    45  41  86 W9G18     29.81R
LOWELL           N/A     43  41  93 CALM      29.83F
COEUR D`ALENE  LGT RAIN  41  39  93 CALM      29.73S
MULLAN PASS    LGT SNOW  29  29 100 SW9       29.66F VSB 3/4 WCI  20
$$



USA.gov is the U.S. government's official web portal to all federal, state and local government web resources and services.